Location: Cathedral Gorge
(37.8167°N, 114.4167°W)
Time: 03:22:46
(UTC-07:00)

Tiangong 2 - Visible Passes

Search period start: 21 October 2017 00:00
Search period end: 31 October 2017 00:00
Orbit: 388 x 391 km, 42.8° (Epoch: 20 October)

Date Brightness Start Highest point End Pass type
(mag) Time Alt. Az. Time Alt. Az. Time Alt. Az.
21 Oct 3.5 04:47:55 20° SE 04:47:55 20° SE 04:49:04 10° ESE visible
21 Oct 3.5 06:21:24 10° WSW 06:22:19 11° SW 06:23:14 10° SSW visible
22 Oct 3.1 05:25:34 18° SSW 05:25:34 18° SSW 05:27:03 10° SSE visible
28 Oct 3.0 19:22:26 10° SSW 19:23:57 21° S 19:23:57 21° S visible
29 Oct 3.2 18:25:25 10° S 18:27:25 16° SE 18:29:01 12° ESE visible
29 Oct 4.2 20:00:45 10° WSW 20:01:21 15° WSW 20:01:21 15° WSW visible
30 Oct 1.2 19:02:54 10° SW 19:06:01 54° SSE 19:06:19 51° SE visible
